METLOCID,DATE_TIME,AVG_AIRT3M,STDDEV_AIRT3M,MIN_AIRT3M,MAX_AIRT3M,N_AIRT3M
BRHM,1/1/95,-5.064666667,1.949561884,-10.48,0.47,540
BRHM,2/1/95,-8.320431548,4.278852161,-17.57,4.08,672
BRHM,3/1/95,-22.90391129,6.892458566,-35.09,-6.37,744
BRHM,4/1/95,-29.72548611,7.152728729,-43.99,-9.74,720
BRHM,5/1/95,-29.90623656,7.679830119,-45.57,-10.57,744
BRHM,6/1/95,-28.26854167,9.884713685,-48.12,-4.81,720
BRHM,7/1/95,-29.7031586,7.317261665,-43.75,-9.24,744
BRHM,8/1/95,-23.64280543,6.644783005,-34.56,-9.4,221
BRHM,11/1/95,-4.118469242,2.408220182,-12.02,2.16,699
BRHM,12/1/95,-2.853692876,2.209515869,-8.88,3.92,2976
BRHM,1/1/96,-3.795903898,2.362546708,-9.44,4.91,2976
BRHM,2/1/96,-8.209324713,5.074195076,-20.07,2.05,2784
BRHM,3/1/96,-17.76408602,6.113415311,-31.31,1.11,2976
BRHM,4/1/96,-19.18276467,6.367272018,-34.28,-3.61,1823
BRHM,11/1/96,-6.648932214,2.552567441,-13.23,0.36,1667
BRHM,12/1/96,-2.906841398,1.852143025,-9.22,2.47,2976
BRHM,1/1/97,-4.282377883,2.33193946,-9.78,3.61,2948
BRHM,2/1/97,-12.16829241,4.229144863,-23.17,-2.68,2688
BRHM,3/1/97,-23.97016288,5.626573164,-35.8,-9.63,2947
BRHM,4/1/97,-31.17863194,7.720868506,-46.89,-8.33,2880
BRHM,5/1/97,-26.06477151,9.726623469,-47.28,-6.16,2976
BRHM,6/1/97,-26.43119097,10.1355244,-48.76,-7.23,2880
BRHM,7/1/97,-35.84655578,9.412209382,-51.17,-14.46,2976
BRHM,8/1/97,-35.93307796,9.160338176,-50.51,-14.04,2976
BRHM,9/1/97,-27.16848528,9.622504942,-48.1,-1.92,2786
BRHM,10/1/97,-15.43005712,5.329729099,-32.16,-3.91,2976
BRHM,11/1/97,-5.846697949,5.717876514,-24.36,4.37,2877
BRHM,12/1/97,-5.004663978,3.159418001,-12.09,3.21,2976
BRHM,1/1/98,-5.225384874,2.122154849,-11.76,-0.04,2975
BRHM,2/1/98,-8.621897321,3.546820385,-18.52,0.73,2688
BRHM,3/1/98,-21.80188172,5.016669177,-36.94,-7.97,2976
BRHM,4/1/98,-33.65790972,9.40313486,-50.57,-6.08,2880
BRHM,5/1/98,-28.6828629,8.976259471,-44.98,-4.31,2976
BRHM,6/1/98,-21.96959375,6.83408421,-35.52,-8.89,2880
BRHM,7/1/98,-29.45918347,8.69623343,-45.76,-11.24,2976
BRHM,8/1/98,-32.77358535,9.374695804,-45.7,-8.29,2976
BRHM,9/1/98,-35.53298264,7.29169555,-47.74,-4.41,2880
BRHM,10/1/98,-18.92185484,5.660147409,-36.83,-3.21,2976
BRHM,11/1/98,-11.08954514,4.819412591,-26.05,-1.72,2880
BRHM,12/1/98,-4.35952621,3.334872128,-12.81,7.95,2976
BRHM,1/1/99,-3.242288306,2.160392877,-8.16,3.68,2976
BRHM,2/1/99,-9.68139881,4.549291145,-22.05,0.44,2688
BRHM,3/1/99,-23.89527218,6.748503266,-38.92,-10,2976
BRHM,4/1/99,-32.90959375,8.391826268,-47.06,-11.11,2880
BRHM,5/1/99,-33.8231418,9.563691913,-51.88,-9.14,2976
BRHM,6/1/99,-27.67652083,8.723136797,-44.9,-6.88,2880
BRHM,7/1/99,-25.88874664,9.200606027,-42.78,-8.15,2976
BRHM,8/1/99,-36.25303763,10.14616937,-50.81,-12.45,2976
BRHM,9/1/99,-26.70811458,8.078617803,-43.14,-3.49,2880
BRHM,10/1/99,-18.19052419,5.842174275,-36.39,-3.9,2976
BRHM,11/1/99,-8.572354167,3.786818734,-20.83,2.4,2880
BRHM,12/1/99,-4.251216398,1.739349632,-9.78,0.72,2976
BRHM,1/1/00,-4.417956989,2.103006234,-11.02,1.94,2976
BRHM,2/1/00,-10.13828664,3.573002369,-19.73,-2.44,2784
BRHM,3/1/00,-19.50363911,7.025750459,-39.37,-4.34,2976
BRHM,4/1/00,-26.68271875,8.631950742,-41.01,-3.21,2880
BRHM,5/1/00,-30.34601815,9.192292711,-46.88,-7.39,2976
BRHM,6/1/00,-32.52791667,11.57776104,-48.03,-1.96,2880
BRHM,7/1/00,-26.3637332,9.421424571,-48.72,-5.16,2976
BRHM,8/1/00,-29.68988911,10.30514723,-47.08,-7.75,2976
BRHM,9/1/00,-26.90808681,10.40317925,-45.01,-6.68,2880
BRHM,10/1/00,-22.15121304,5.467248205,-34.29,-7.55,2976
BRHM,11/1/00,-7.636043765,5.246445398,-26.05,2.6,2879
BRHM,12/1/00,-5.054200269,1.668224286,-8.64,-0.47,2976
BRHM,1/1/01,-6.07921707,2.892670766,-11.26,7.64,2976
BRHM,2/1/01,-8.117384673,3.336073604,-18.03,3.77,2688
BRHM,3/1/01,-21.64558468,5.704275595,-32.65,-4.39,2976
BRHM,4/1/01,-26.77085764,8.020943106,-44.32,-8.29,2880
BRHM,5/1/01,-26.72684812,9.630052859,-43.66,-5.3,2976
BRHM,6/1/01,-25.40730208,6.975669948,-41.33,-4.62,2880
BRHM,7/1/01,-28.53795027,7.871892124,-44.68,-9.49,2976
BRHM,8/1/01,-39.01732863,6.290657078,-51.22,-17.73,2976
BRHM,9/1/01,-30.0975625,8.65012283,-44.39,-8.25,2880
BRHM,10/1/01,-19.38508065,6.358365018,-37.45,-4.67,2976
BRHM,11/1/01,-9.35909375,3.679252237,-21.33,-0.19,2880
BRHM,12/1/01,-2.125332885,3.715624252,-9.86,10.28,2974
BRHM,1/1/02,-1.713511425,3.735267657,-9.76,10.66,2976
BRHM,2/1/02,-8.429441964,3.744005116,-18.26,0.29,2688
BRHM,3/1/02,-17.12897177,4.848918495,-31.08,-6.55,2976
BRHM,4/1/02,-27.00487847,8.230816001,-40.28,-6.9,2880
BRHM,5/1/02,-23.68769825,8.141314694,-40.61,-4.52,2976
BRHM,6/1/02,-32.92860417,8.609746284,-47.06,-9.53,2880
BRHM,7/1/02,-32.40252016,8.80131005,-46.98,-12.47,2976
BRHM,8/1/02,-33.69240591,7.343269173,-46.52,-11.75,2976
BRHM,9/1/02,-28.4561875,8.216692067,-46.93,-7.57,2880
BRHM,10/1/02,-21.80527554,5.741156882,-35.33,-6.06,2976
BRHM,11/1/02,-12.14190278,2.601172577,-20.43,-2.94,2880
BRHM,12/1/02,-5.483612231,3.049484842,-13.92,1.14,2976
BRHM,1/1/03,-3.333551747,3.172210912,-13.98,6.82,2976
BRHM,2/1/03,-9.966302083,3.023630826,-19.69,0.07,2688
BRHM,3/1/03,-21.13156586,6.243020135,-36.26,-7.44,2976
BRHM,4/1/03,-30.63465972,7.600092965,-42.44,-5.12,2880
BRHM,5/1/03,-23.29886761,10.03457934,-42.7,0.44,2976
BRHM,6/1/03,-29.43965625,7.451978996,-44.67,-11.84,2880
BRHM,7/1/03,-28.15498992,7.999841427,-43.43,-10.99,2976
BRHM,8/1/03,-32.57472446,8.040395867,-49.13,-11.74,2976
BRHM,9/1/03,-26.61690625,8.909836031,-45.64,-9.16,2880
BRHM,10/1/03,-17.26549731,4.473603862,-31.01,-6.81,2976
BRHM,11/1/03,-10.80118403,2.882911448,-20.64,0.28,2880
BRHM,12/1/03,-3.298481183,3.01063533,-11.64,4.54,2976
BRHM,1/1/04,-4.88186828,2.58339563,-11.06,4.46,2976
BRHM,2/1/04,-10.404375,3.796647495,-21.71,-2.34,2784
BRHM,3/1/04,-24.74027218,5.470094325,-38.87,-11.73,2976
BRHM,4/1/04,-28.34923958,7.501138087,-43.77,-12.15,2880
BRHM,5/1/04,-32.03109207,10.0768175,-47.32,-6.1,2976
BRHM,6/1/04,-26.09469792,8.950307986,-42.99,-7.71,2880
BRHM,7/1/04,-37.91760081,8.443649425,-50.89,-9.39,2976
BRHM,8/1/04,-30.255,8.907036248,-46.7,-8.21,2976
BRHM,9/1/04,-29.78391319,6.053209122,-40.89,-9.23,2880
BRHM,10/1/04,-19.60709005,6.665558016,-39.56,-5,2976
BRHM,11/1/04,-7.839451389,4.438690048,-19.11,3.3,2880
BRHM,12/1/04,-2.440769489,1.794799709,-9.08,4.11,2976
BRHM,1/1/05,-3.443263866,2.725261783,-11.19,7.97,2975
BRHM,2/1/05,-10.12450521,4.836591975,-24.5,2.34,2688
BRHM,3/1/05,-21.86716062,5.079341554,-32.84,-7.76,2976
BRHM,4/1/05,-29.62705208,7.066043163,-42.08,-15.76,2880
BRHM,5/1/05,-25.70885417,7.053192214,-41,-7.8,2976
BRHM,6/1/05,-28.91416667,8.895386208,-46.16,-3.52,2880
BRHM,7/1/05,-31.68964382,9.930151112,-46.02,-2.12,2976
BRHM,8/1/05,-31.26482191,8.071669695,-44.38,-9.42,2976
BRHM,9/1/05,-27.37500347,10.23054458,-45.06,0.87,2880
BRHM,10/1/05,-17.0803797,6.206879487,-32.41,-2.14,2976
BRHM,11/1/05,-9.361760417,2.944938221,-17.86,-0.46,2880
BRHM,12/1/05,-2.385571237,2.223032922,-9.28,4.68,2976
BRHM,1/1/06,-3.651894353,1.757371105,-7.2,-0.11,1098
BRHM,5/1/06,-30.04839161,9.869008386,-41.97,-8.98,286
BRHM,6/1/06,-26.0011773,11.16063924,-47.37,-6.58,2837
BRHM,7/1/06,-36.66596774,8.637599009,-49.02,-15.71,2976
BRHM,8/1/06,-24.5540961,8.266673682,-39.96,-7.11,2976
BRHM,9/1/06,-26.91715874,9.750208422,-45.7,-4.8,2879
BRHM,10/1/06,-22.99629368,5.703880596,-38.03,-7.49,2976
BRHM,11/1/06,-10.50975694,5.416966266,-24.96,-1.28,2880
BRHM,12/1/06,-5.518508065,2.792195039,-11.92,2.34,2976
BRHM,1/1/07,-1.241568956,2.236554974,-6.56,8.01,1791
BRHM,9/1/07,-22.19213582,7.100890629,-41.73,-6.19,1929
BRHM,10/1/07,-20.07496976,5.485121369,-35.54,-8.17,2976
BRHM,11/1/07,-10.55840278,5.264806787,-26.96,-0.92,2880
BRHM,12/1/07,-3.595352823,3.589091008,-11.9,5.83,2976
BRHM,1/1/08,-3.482316745,2.471994388,-10.42,2.86,2974
BRHM,2/1/08,-11.3365194,3.204186063,-19.76,-0.97,2784
BRHM,3/1/08,-19.49229167,7.478610467,-34.93,-0.11,2976
BRHM,4/1/08,-24.44201042,6.749199916,-37.28,-7.18,2880
BRHM,5/1/08,-28.98820565,7.211701696,-44.02,-6.07,2976
BRHM,6/1/08,-22.09157639,7.283349724,-38.21,-3.53,2880
BRHM,7/1/08,-33.37200941,9.264878759,-47.25,-9.13,2976
BRHM,8/1/08,-35.57642473,7.609478617,-49.81,-12.26,2976
BRHM,9/1/08,-21.04391667,6.726363064,-40.75,-8.3,2880
BRHM,10/1/08,-18.6843414,4.582575112,-32.74,-9.39,2976
BRHM,11/1/08,-10.75574653,4.013909897,-21.05,0.14,2880
BRHM,12/1/08,-3.304311156,2.727232746,-11.09,5.71,2976
BRHM,1/1/09,-3.282063172,2.307275299,-9.1,3.42,2976
BRHM,2/1/09,-11.98515625,5.432189272,-25.64,-0.79,2688
BRHM,3/1/09,-22.04708333,6.135335246,-34.71,-6.45,2976
BRHM,4/1/09,-22.64250694,7.865435571,-41.17,-7.95,2880
BRHM,5/1/09,-31.42803427,10.68398549,-47.58,-8.57,2976
BRHM,6/1/09,-27.09973264,9.707154817,-48.42,-8.75,2880
BRHM,7/1/09,-27.14093078,8.37693908,-41.95,-3.4,2976
BRHM,8/1/09,-29.86902218,7.862110398,-43.86,-14.01,2976
BRHM,9/1/09,-27.18877083,9.546024733,-48,-3.01,2880
BRHM,10/1/09,-21.23957325,4.850796894,-35.15,-5.32,2976
BRHM,11/1/09,-7.896475694,5.164426437,-21.2,3.83,2880
BRHM,12/1/09,-3.789663866,2.148132786,-9.19,3.68,2975
BRHM,1/1/10,-3.827607527,1.990531787,-9.11,5.08,2976
BRHM,2/1/10,-9.990606399,4.903371523,-27.59,0.99,2688
BRHM,3/1/10,-19.66617272,7.18624806,-36.04,-6.11,2976
BRHM,4/1/10,-26.84991667,6.458183146,-40.26,-10.55,2880
BRHM,5/1/10,-29.72696237,8.525335358,-47.2,-11.38,2976
BRHM,6/1/10,-32.36205903,7.887371048,-44.57,-10.65,2880
BRHM,7/1/10,-33.27907258,9.504426303,-49.28,-14.68,2976
BRHM,8/1/10,-31.0528293,9.061287993,-49.15,-12.21,2976
BRHM,9/1/10,-31.77740278,6.563642773,-47.77,-16.13,2880
BRHM,10/1/10,-18.65977487,5.289552651,-37.9,-1.48,2976
BRHM,11/1/10,-7.832096143,3.884799857,-17.84,4.11,1789
BRHM,1/1/12,-5.949862745,1.398850139,-9.07,-2.52,510
BRHM,2/1/12,-8.410474138,3.893727701,-19.09,0.41,2784
BRHM,3/1/12,-18.81659274,4.994567289,-31.86,-6.39,2976
BRHM,4/1/12,-26.22815625,8.336440736,-41.59,-6.93,2880
BRHM,5/1/12,-20.6802453,8.940851878,-37.69,-2.4,2976
BRHM,6/1/12,-28.74181944,8.020317208,-41.64,-8.26,2880
BRHM,7/1/12,-33.5439953,7.133530836,-46.24,-15.81,2976
BRHM,8/1/12,-28.04287634,8.727577842,-44.8,-8.91,2976
BRHM,9/1/12,-26.99590548,7.312166414,-44.94,-12.39,2645
BRHM,10/1/12,-19.43563172,4.812526205,-36.45,-10.06,2976
BRHM,11/1/12,-10.08200486,4.066178085,-23.41,-0.27,2878
BRHM,12/1/12,-2.87624664,2.765551011,-11.8,5.37,2976
BRHM,1/1/13,-3.465456989,2.162732382,-10.61,3.24,2976
BRHM,2/1/13,-10.42990327,3.174955786,-19.24,-1.81,2688
BRHM,3/1/13,-18.55516801,6.850599113,-35.4,-4.77,2976
BRHM,4/1/13,-31.4425,7.861564217,-44.85,-8.29,2880
BRHM,5/1/13,-26.48893817,7.734546496,-44.31,-6.26,2976
BRHM,6/1/13,-28.80460069,8.036522099,-49.02,-9.79,2880
BRHM,7/1/13,-34.64134409,7.653703146,-48,-11.73,2976
BRHM,8/1/13,-28.9215457,9.059962812,-43.11,-6.38,2976
BRHM,9/1/13,-22.56011111,7.261721888,-41.85,-4.5,2880
BRHM,10/1/13,-19.93148858,5.40685945,-34.69,-6.72,2976
BRHM,11/1/13,-10.28949306,5.679387208,-25.75,1.78,2880
BRHM,12/1/13,-3.159418683,2.26747971,-10.04,4.08,2976
BRHM,1/1/14,-2.066982527,2.583643086,-9.16,3.79,2976
BRHM,2/1/14,-8.82812872,3.914543802,-15.81,0.79,2688
BRHM,3/1/14,-20.12474798,6.618074899,-38.07,-8.87,2976
BRHM,4/1/14,-24.78910764,7.77213269,-39.37,-3.31,2880
BRHM,5/1/14,-24.80769153,9.889307793,-40.76,-5.42,2976
BRHM,6/1/14,-28.94871181,6.989162924,-43.06,-10.54,2880
BRHM,7/1/14,-38.45562164,9.388278471,-50.27,-7.93,2976
BRHM,8/1/14,-24.65127352,8.356224367,-46,-7.45,2976
BRHM,9/1/14,-21.04984028,6.460323944,-34.5,-4.69,2880
BRHM,10/1/14,-15.98387097,4.857295246,-31.51,-2.36,2976
BRHM,11/1/14,-10.99306704,3.298118076,-21.5,-3.93,2879
BRHM,12/1/14,-5.586001344,2.414445979,-12.68,1.78,2976
BRHM,1/1/15,-3.208390457,2.211804707,-9.22,3.39,2976
BRHM,2/1/15,-6.804657738,3.160311346,-14.54,0.62,2688
BRHM,3/1/15,-21.6436996,6.433519208,-32.35,-6,2976
BRHM,4/1/15,-30.52311458,6.799131285,-45.02,-8.9,2880
BRHM,5/1/15,-33.51018817,6.978579121,-45.72,-14.15,2976
BRHM,6/1/15,-29.83125,8.36550389,-44.05,-8.33,2880
BRHM,7/1/15,-31.6797211,7.974747124,-47.89,-11.32,2976
BRHM,8/1/15,-29.08933468,8.638783911,-44.54,-11.22,2976
BRHM,9/1/15,-30.64472569,8.546685221,-49.33,-10.98,2880
BRHM,10/1/15,-17.35670027,4.19182355,-29.78,-4.65,2976
BRHM,11/1/15,-9.612759819,5.499277645,-24.01,0.57,2877
BRHM,12/1/15,-2.734190188,2.628528556,-8.92,8.3,2976
BRHM,1/1/16,-2.289872312,2.620955394,-9.9,6.17,2976
BRHM,2/1/16,-8.474497126,4.386438673,-18.6,3.8,2784
BRHM,3/1/16,-19.74310148,4.801987077,-32.8,-8.85,2976
BRHM,4/1/16,-35.34259696,3.847171595,-42.76,-24.88,1186
BRHM,5/1/16,-26.80454073,9.339227276,-40.5,-4.82,2308
BRHM,6/1/16,-32.47973958,6.399482495,-44.71,-16.52,2880
BRHM,7/1/16,-38.5142335,9.032599426,-49.52,-11.12,2818
BRHM,8/1/16,-31.92803195,9.401636247,-45.67,-6.49,2942
BRHM,9/1/16,-31.44246528,8.663637754,-47.42,-13.51,2880
BRHM,10/1/16,-20.28362231,4.369143498,-32.31,-5.81,2976
BRHM,11/1/16,-9.002440972,4.026809235,-18.93,4.56,2880
BRHM,12/1/16,-3.02562775,2.696543571,-12.74,3.88,2955
BRHM,1/1/17,-3.255910618,2.264829935,-10.37,2.84,2976
BRHM,2/1/17,-8.464817708,3.86961023,-18.14,2.16,2688
BRHM,3/1/17,-19.07724126,5.904466045,-36.07,-5.79,2976
BRHM,4/1/17,-24.91595139,5.972949373,-39.32,-13.57,2880
BRHM,5/1/17,-22.82927755,7.363637048,-36.91,-5.94,2976
BRHM,6/1/17,-28.97098611,8.286968184,-45.86,-9.01,2880
BRHM,7/1/17,-28.70891129,7.489936282,-42.19,-10.74,2976
BRHM,8/1/17,-28.61525538,10.65930677,-46.47,-8.43,2976
BRHM,9/1/17,-29.57116319,7.128218077,-44.26,-8.32,2880
BRHM,10/1/17,-16.49760081,5.303531599,-28.92,-4.44,2976
BRHM,11/1/17,-10.92804658,4.715021693,-22.08,2.3,2877
BRHM,12/1/17,-5.180534274,2.196045985,-11.65,4.77,2976
BRHM,1/1/18,-3.324606855,2.544021533,-10.44,2.98,2976
BRHM,2/1/18,-10.10979539,3.639017461,-20.84,-2.19,2688
BRHM,3/1/18,-17.53320228,5.287161459,-34.37,-2.03,2976
BRHM,4/1/18,-23.47374653,8.245060961,-39.81,-4.01,2880
BRHM,5/1/18,-30.37147849,8.283006942,-43.4,-6.89,2976
BRHM,6/1/18,-24.09556944,6.59381507,-42.36,-9.5,2880
BRHM,7/1/18,-28.86938508,11.41930894,-49.33,-10.25,2976
BRHM,8/1/18,-31.61775202,11.37211983,-46.85,-5.82,2976
BRHM,9/1/18,-26.88165278,7.298762078,-43.03,-9.25,2880
BRHM,10/1/18,-15.76269825,6.424897042,-30.81,0.37,2976
BRHM,11/1/18,-8.321621528,3.730584441,-18.18,0.86,2880
BRHM,12/1/18,-2.103885935,2.882231848,-9.7,6.99,2069